Location: Unspecified
(0.0000°N, 0.0000°E)
Time: 19:37:52
(UTC+00:00)

Vanguard 1 - Pass Details

Date: 23 April 2026
Orbit: 654 x 3817 km, 34.2° (Epoch: 18 May)

Event Time Altitude Azimuth Distance (km) Brightness Sun altitude
Rises 00:25:45 0° 306° (NW) 7,830 14.7 -75.8°
Reaches altitude 10° 00:34:33 10° 322° (NW) 6,911 14.3 -74.6°
Maximum altitude 00:48:37 19° 1° (N) 5,846 14.0 -72.4°
Drops below altitude 10° 01:00:30 10° 39° (NE) 5,819 14.1 -70.2°
Sets 01:06:43 0° 57° (ENE) 6,271 14.5 -69.0°
